This is the latest recevied weather packets stored in our database for station/object W4CAT-13. If no packets are shown the sender has not sent any weather packets the latest 10 day(s).
| Time | Temp. | Humidity | Pressure | Rain* | Wind** | Luminosity | Snow |
|---|---|---|---|---|---|---|---|
| 1778015688 | 22.78° C | 47% | 971.8 hPa | 0 mm | - | - | - |
| 1778014788 | 22.78° C | 47% | 971.6 hPa | 0 mm | - | - | - |
| 1778013888 | 22.78° C | 49% | 971.9 hPa | 0 mm | - | - | - |
| 1778012988 | 22.78° C | 50% | 972.6 hPa | 0 mm | - | - | - |
| 1778012087 | 22.22° C | 49% | 972.6 hPa | 0 mm | - | - | - |
| 1778011188 | 22.22° C | 48% | 972.9 hPa | 0 mm | - | - | - |
| 1778010287 | 22.78° C | 48% | 973.2 hPa | 0 mm | - | - | - |
| 1778009388 | 22.22° C | 49% | 973.2 hPa | 0 mm | - | - | - |
| 1778008487 | 21.67° C | 51% | 973.9 hPa | 0 mm | - | - | - |
| 1778007558 | 20.56° C | 56% | 973.9 hPa | 0 mm | - | - | - |
| 1777974665 | 14.44° C | 73% | 973.9 hPa | 0 mm | - | - | - |
| 1777973735 | 15° C | 72% | 973.6 hPa | 0 mm | - | - | - |
| 1777972806 | 15.56° C | 70% | 973.6 hPa | 0 mm | - | - | - |
| 1777971876 | 15.56° C | 68% | 973.9 hPa | 0 mm | - | - | - |
| 1777970946 | 16.11° C | 67% | 973.9 hPa | 0 mm | - | - | - |
| 1777970015 | 16.11° C | 65% | 973.6 hPa | 0 mm | - | - | - |
| 1777969086 | 16.67° C | 64% | 973.6 hPa | 0 mm | - | - | - |
| 1777968276 | 16.67° C | 64% | 973.6 hPa | 0 mm | - | - | - |
| 1777968155 | 16.67° C | 64% | 973.6 hPa | 0 mm | - | - | - |
| 1777967225 | 16.67° C | 64% | 973.6 hPa | 0 mm | - | - | - |
| 1777966295 | 16.67° C | 64% | 973.9 hPa | 0 mm | - | - | - |
| 1777965366 | 16.67° C | 64% | 973.6 hPa | 0 mm | - | - | - |
| 1777964435 | 16.67° C | 64% | 973.6 hPa | 0 mm | - | - | - |
| 1777963505 | 16.67° C | 63% | 973.6 hPa | 0 mm | - | - | - |
| 1777962575 | 16.67° C | 62% | 973.6 hPa | 0 mm | - | - | - |
* Rain latest hour (hover to see other rain measurements)
** Current wind speed in m/s (hover to see current wind gust speed)